Погода в Драбове

Украина / Черкасская область     49°57′20″N   32°07′55″E
темп.,
°C
ветер,
м/с
пор.,
м/с
влажн.,
%
обл.,
%
осадки,
мм/ч
давл.,
гПа
погр.,
м
22 мая, вс
вс2200:00+13зсз816885 0.0 1004675
03:00+12зсз81583100 0.0 1003784
06:00+10зсз814770 0.0 1003781
09:00+11з71379100 0.0 10021265
12:00+11зсз71180100 0.4 10021274
15:00+13сз8117098 0.4 10021323
18:00+11сз71085100 0.1 10031065
21:00+10ссз489399 0.3 1004538
23 мая, пн
пн2300:00+7ссз379629 0.0 1006164
03:00+7ссз379584 0.0 1007164
06:00+8с369285 0.0 1007229
09:00+11ссв347591 0.0 1008445
12:00+15ссв455050 0.5 10081960
15:00+16с664396 0.5 10092147
18:00+14ссв5653100 0.0 10101351
21:00+9св2269100 0.0 101112
24 мая, вт
вт2400:00+8юз117150 0.0 101210
03:00+9зсз2363100 0.0 101348
06:00+7ссз35767 0.0 1013102
09:00+12с46560 0.0 1014627
12:00+16с464714 0.0 10141941
15:00+15с3563100 0.0 1015345
18:00+16з355713 0.0 1015756
21:00+11зсз33715 0.0 101630
25 мая, ср
ср2500:00+10з226627 0.0 101721
03:00+9з35725 0.0 101889
06:00+9з35770 0.0 101984
09:00+16з35573 0.0 1020428
12:00+20зюз33432 0.0 10191812
15:00+21юз343945 0.0 10182238
18:00+21юз355096 0.0 10172077
21:00+15ю3369100 0.0 101729
26 мая, чт
чт2600:00+14ю4864100 0.0 1016157
03:00+15ююз5135797 0.0 1016407
06:00+12ююз61461100 0.0 1014396
09:00+13ююз7136699 0.0 1013681
12:00+12юз61296100 4.9 1013613
15:00+17зсз8117863 6.1 10131255
18:00+18з7116387 0.1 10131166
21:00+15з614726 0.1 1014486